Regional Weather Roundup
Issued by NWS

Home | Current Version | Previous Version | Text Only | Print | Product List | Glossary On
Versions: 1 2 3 4 5 6 7 8 9 10 11 12 13 14 15 16 17 18 19 20 21 22 23 24 25 26 27 28 29 30 31 32 33 34 35 36 37 38 39 40 41 42 43 44 45 46 47 48 49 50
000
ASPQ40 PGUM 180912
RWRPQ
WEATHER ROUNDUP FOR THE MARIANAS AND MICRONESIA
NATIONAL WEATHER SERVICE TIYAN GU
700 PM CHST THU SEP 18 2014

GUZ001>004-181000-
MARIANA ISLANDS-

CITY           SKY/WX    TMP DP  RH WIND       PRES   REMARKS
GUAM AIRPORT   CLEAR     82  73  74 N6        29.91R
ANDERSEN AFB   CLEAR     82  75  78 NE7       29.91R
ROTA AIRPORT   PTCLDY    81  75  83 N6        29.91R
TINIAN AP      PTCLDY    82  77  83 N6        29.88R HX  91
SAIPAN AP      PTCLDY    82  75  78 NE8       29.89R

$$

PMZ161-181000-
REPUBLIC OF PALAU-

CITY           SKY/WX    TMP DP  RH WIND       PRES   REMARKS
KOROR AP       MOCLDY    84  77  79 S3        29.85R HX  94
KOROR WSO      NOT AVBL

$$

PMZ171>174-181000-
FEDERATED STATES OF MICRONESIA-

CITY           SKY/WX    TMP DP  RH WIND       PRES   REMARKS
YAP AIRPORT    CLOUDY    82  77  83 NW9       29.87R HX  91
CHUUK AP       MOCLDY    84  79  84 NE8       29.80R HX  96
POHNPEI AP     NOT AVBL
POHNPEI WSO    PTCLDY    79  77  94 SE3       29.85R
KOSRAE AP      NOT AVBL

$$

PMZ181-181000-
REPUBLIC OF THE MARSHALL ISLANDS-

CITY           SKY/WX    TMP DP  RH WIND       PRES   REMARKS
KWAJALEIN AP   CLEAR     82  73  74 E5        29.82R
MAJURO AP      NOT AVBL
MAJURO WSO     MOCLDY    84  77  79 E5        29.80R HX  94

$$



USA.gov is the U.S. government's official web portal to all federal, state and local government web resources and services.